This demonstration page uses our WeatherBlox Daily Observations layout. Learn more.

Left ArrowRight Arrow

Hourly Observations for January 20, 2016

Temp ( °F °C ) Dew Point ( °F °C ) Humidity (%) Winds ( mph kmh ) Pressure ( in mb ) Visibility ( mi km ) Precip ( " mm )
12:10 am 00:10 Cloudy 21 -6 18 -8 86 86 S 7 11 30.36 1028 9 14 0.00 0.00
12:54 am 00:54 Cloudy 21 -6.1 17 -8.3 85 85 S 6 9 30.27 1025 9 14 0.00 0.00
1:54 am 01:54 Cloudy 21 -6.1 17 -8.3 85 85 S 7 11 30.25 1024 8 13 0.00 0.00
2:54 am 02:54 Cloudy 21 -6.1 17 -8.3 85 85 SSW 7 11 30.25 1024 7 11 0.00 0.00
3:54 am 03:54 Cloudy 21 -6.1 18 -7.8 88 88 S 6 9 30.22 1024 7 11 0.00 0.00
4:54 am 04:54 Cloudy 21 -6.1 18 -7.8 88 88 S 8 13 30.22 1023 8 13 0.00 0.00
5:54 am 05:54 Cloudy 22 -5.6 18 -7.8 85 85 S 6 9 30.20 1023 8 13 0.00 0.00
6:54 am 06:54 Cloudy 22 -5.6 18 -7.8 85 85 SSE 6 9 30.21 1023 8 13 0.00 0.00
7:24 am 07:24 Cloudy 21 -6 18 -8 86 86 S 6 9 30.27 1025 8 13 0.00 0.00
7:54 am 07:54 Cloudy 22 -5.6 19 -7.2 89 89 S 7 11 30.22 1023 7 11 0.00 0.00
8:54 am 08:54 Cloudy 23 -5 19 -7.2 85 85 SSE 7 11 30.20 1023 7 11 0.00 0.00
9:54 am 09:54 Cloudy 24 -4.4 20 -6.7 84 84 S 12 19 30.19 1022 7 11 0.00 0.00
10:54 am 10:54 Cloudy 25 -3.9 21 -6.1 85 85 S 8 13 30.20 1023 7 11 0.00 0.00
11:54 am 11:54 Cloudy 27 -2.8 22 -5.6 81 81 S 9 15 30.16 1021 8 13 0.00 0.00
12:54 pm 12:54 Cloudy 29 -1.7 23 -5 78 78 S 14 22 30.13 1020 8 13 0.00 0.00
1:54 pm 13:54 Cloudy 30 -1.1 24 -4.4 79 79 S 15 24 30.10 1019 8 13 0.00 0.00
2:54 pm 14:54 Cloudy 30 -1.1 24 -4.4 79 79 S 15 24 30.10 1019 8 13 0.00 0.00
3:54 pm 15:54 Cloudy 30 -1.1 24 -4.4 79 79 SSE 14 22 30.09 1019 8 13 0.00 0.00
4:54 pm 16:54 Cloudy 30 -1.1 24 -4.4 79 79 SSE 15 24 30.10 1019 8 13 0.00 0.00
5:54 pm 17:54 Cloudy 29 -1.7 23 -5 78 78 SE 9 15 30.11 1020 8 13 0.00 0.00
6:54 pm 18:54 Cloudy 28 -2.2 23 -5 81 81 SE 10 17 30.12 1020 7 11 0.00 0.00
7:33 pm 19:33 Cloudy 28 -2.2 23 -5 81 81 ESE 9 15 30.18 1022 8 13 0.00 0.00
7:54 pm 19:54 Cloudy 28 -2.2 23 -5 81 81 ESE 9 15 30.13 1020 8 13 0.00 0.00
8:54 pm 20:54 Cloudy 27 -2.8 22 -5.6 81 81 SE 9 15 30.14 1021 8 13 0.00 0.00
9:54 pm 21:54 Cloudy 27 -2.8 22 -5.6 81 81 ESE 12 19 30.15 1021 8 13 0.00 0.00
10:54 pm 22:54 Cloudy 26 -3.3 22 -5.6 84 84 ESE 9 15 30.18 1022 7 11 0.00 0.00
11:54 pm 23:54 Cloudy 26 -3.3 21 -6.1 81 81 ESE 7 11 30.19 1022 7 11 0.00 0.00

Powered by AerisWeather